Retour au catalogue

COSMOS 2218

ActifNavigationPO
NORAD 22207·PAYLOAD·🇷🇺 Russia

Lancé Oct 29, 1992 depuis Plesetsk Cosmodrome

Loading…

Prochains Passages (prochaines 24 heures)

TLE

FraisSource: Space-Track

Époque: Sep 14, 2026, 22:33 UTC

1 22207U 92073A   26257.94015654  .00000030  00000-0  15443-4 0  9994
2 22207  82.9176  69.0712 0033828 110.7664  42.9245 13.73098606697250

Suivez COSMOS 2218 en temps réel avec AllMySat

Download on the App Store